sat.trackr.live / text

‹ back to catalog

STARLINK-11624 [DTC]

NORAD 63105 · 2025-039B

PAYLOAD ACTIVE UNKNOWN

§ Identity

Operator
Country
US
Launch date
2025-02-27
Launch site
AFETR
Launch vehicle
Mass (kg)
RCS (m²)

Purposes: comms

External: N2YO · Heavens-Above · Gunter

§ Orbital elements

Epoch: 2026-09-20T17:08:54.547872Z

Period
91.67 min
Inclination
43.0045°
Eccentricity
0.0003067
Mean motion
15.70838820 rev/d
Perigee alt
354.4 km
Apogee alt
358.6 km
Semi-major
6,734.6 km
B*
1.2221e-3
RAAN
141.6675°
Arg perigee
262.2500°
Mean anomaly
97.8019°
Rev number
9,028

§ Raw data

STARLINK-11624 [DTC]1 63105U 25039B   26263.71452023  .00159419  00000+0  12221-2 0  99952 63105  43.0045 141.6675 0003067 262.2500  97.8019 15.70838820 90281

JSON: /api/v1/satellites/63105 · /tle

For live sub-satellite position, see the globe view (requires WebGL).

§ Visibility from observer

Set your observer location to see the next 7 days of passes ≥ 10°. The values pass through the URL so the page stays shareable.

No JS? Fill the form by hand. The geolocation button needs JavaScript.